Flag for Brazil Weather past 2 weeks in Maceió, Alagoas, Brazil

Now
68 °F

Passing clouds.


Feels Like: 68 °F
Forecast: 72 / 81 °F
Wind: No wind

Location: Maceio Aeroporto

Current Time: Sep 15, 2014 at 10:51:04 PM

Latest Report: Sep 15, 2014 at 10:00 PM


Visibility: N/A

Pressure: 30.07 "Hg

Humidity: 100%

Dew point: 68 °F

Location of MaceióLocation

Historic Weather in Maceió — Graph

°F

Maceió temperature yesterday

Maximum temperature yesterday: 82 °F (at 1:00 PM)
Minimum temperature yesterday: 66 °F (at 2:00 AM)
Average temperature yesterday: 73 °F

Past Weeks' High & Low Weather Summary

 TemperatureHumidityPressure
High88 °F (Sep 3, 12:00 PM)100% (Aug 31, 10:00 PM)30.12 "Hg (Aug 31, 10:00 PM)
Low64 °F (Sep 15, 4:00 AM)51% (Sep 13, 12:00 PM)29.89 "Hg (Sep 4, 2:00 PM)
Average74 °F85%30.03 "Hg
* Reported Aug 31 10:00 PM — Sep 15 10:00 PM, Maceió, Weather by CustomWeather, © 2014

Note: Actual official high and low records may vary slightly from our data, if they occured in-between our weather recording intervals... More about our weather records

Advertising

Maceió weather history for previous 24 hours

 ConditionsComfort  
Time TempWeatherWind HumidityBarometerVisibility
10:00 PM
Sep 15
68 °FPassing clouds.No wind100%30.07 "HgN/A
9:00 PM68 °FPassing clouds.2 mph94%30.04 "HgN/A
8:00 PM68 °FPassing clouds.6 mph100%30.04 "HgN/A
7:00 PM68 °FPassing clouds.5 mph100%30.04 "Hg5 mi
6:00 PM70 °FPassing clouds.2 mph94%30.01 "Hg5 mi
5:00 PM72 °FScattered clouds.9 mph94%30.01 "Hg5 mi
4:00 PM72 °FScattered clouds.7 mph94%30.01 "Hg5 mi
3:00 PM72 °FLight rain. Fog.14 mph94%30.01 "Hg2 mi
2:00 PM77 °FPartly sunny.8 mph79%30.01 "HgN/A
1:00 PM77 °FScattered clouds.10 mph74%30.04 "HgN/A
12:00 PM75 °FBroken clouds.9 mph83%30.04 "HgN/A
11:00 AM70 °FLight rain. Broken clouds.9 mph100%30.07 "Hg4 mi
10:00 AM73 °FScattered clouds.3 mph89%30.09 "HgN/A
9:00 AM72 °FLight rain. Scattered clouds.6 mph94%30.09 "Hg5 mi
8:00 AM72 °FScattered clouds.5 mph88%30.09 "HgN/A
7:00 AM68 °FScattered clouds.3 mph100%30.07 "HgN/A
6:00 AM64 °FSunny.3 mph100%30.07 "Hg10 mi
5:00 AM64 °FClear.3 mph100%30.07 "Hg10 mi
4:00 AM64 °FPassing clouds.3 mph100%30.04 "HgN/A
3:00 AM66 °FPassing clouds.3 mph94%30.07 "HgN/A
2:00 AM68 °FPassing clouds.2 mph94%30.04 "HgN/A
1:00 AM66 °FPassing clouds.2 mph100%30.07 "HgN/A
12:00 AM66 °FPassing clouds.3 mph94%30.07 "HgN/A
11:00 PM
Sep 14
68 °FPassing clouds.1 mph88%30.09 "HgN/A
10:00 PM68 °FPassing clouds.3 mph88%30.09 "HgN/A
Weather by CustomWeather, © 2014

See weather overviewHow to use our weather pages